Regional Weather Roundup
Issued by NWS

Home | Current Version | Previous Version | Graphics & Text | Print | Product List | Glossary On
Versions: 1 2 3 4 5 6 7 8 9 10 11 12 13 14 15 16 17 18 19 20 21 22 23 24 25 26 27 28 29 30 31 32 33 34 35 36 37 38 39 40 41 42 43 44 45 46 47 48 49 50
000
ASUS44 KMEG 192210
RWRTN
TENNESSEE HOURLY STATE WEATHER ROUNDUP
NATIONAL WEATHER SERVICE MEMPHIS TN
500 PM CDT TUE AUG 19 2014

TNZ002-004-019-021-049-052-054-088>092-192300-
WEST TENNESSEE

CITY           SKY/WX    TMP DP  RH WIND       PRES   REMARKS
MEMPHIS INTL   MOSUNNY   92  74  55 SW12      29.84F HX 101
NWS MEMPHIS      N/A     93 N/A N/A MISG        N/A
JACKSON        MOSUNNY   89  72  56 S7        29.83F HX  96
DYERSBURG      MOSUNNY   88  68  51 W7        29.84S HX  91
UNION CITY     SUNNY     86  75  70 W7        29.83S HX  95
PARIS          SUNNY     86  72  62 S9        29.85F HX  92
HUNTINGDON     MOSUNNY   84  71  65 SW6       29.84F
LEXINGTON      SUNNY     90  70  51 SW5       29.84F HX  95
SAVANNAH       SUNNY     90  73  58 W5        29.87S HX  98
$$

TNZ008-025-027-028-033-062-065-066-192300-
NORTH MIDDLE TENNESSEE

CITY           SKY/WX    TMP DP  RH WIND       PRES   REMARKS
NASHVILLE      PTSUNNY   89  71  55 W8        29.86S HX  95
PORTLAND       MOSUNNY   90  72  55 SW6       29.84F HX  96
CLARKSVILLE    PTSUNNY   87  73  62 SW12      29.83F HX  94
SMYRNA         MOSUNNY   90  70  51 NW7       29.86S HX  95
MURFREESBORO   SUNNY     89  69  51 NW6       29.85F HX  93
COOKEVILLE     MOSUNNY   88  72  58 CALM      29.88F HX  94
GALLATIN       MOSUNNY   90  73  57 VRB6      29.85F HX  98
CROSSVILLE     MOSUNNY   81  68  64 W9        29.94S
$$

TNZ061-075-076-078-094-096-097-192300-
SOUTH MIDDLE TENNESSEE

CITY           SKY/WX    TMP DP  RH WIND       PRES   REMARKS
LEWISBURG      MOSUNNY   89  72  57 W5        29.87F HX  96
FAYETTEVILLE   MOSUNNY   84  72  65 VRB7      29.89F
TULLAHOMA      MOSUNNY   88  70  55 W7        29.91S HX  92
WINCHESTER     MOSUNNY   86  72  62 W5        29.90S HX  92
MCMINNVILLE    SUNNY     86  73  66 W6        29.89F HX  93
COLUMBIA       MOSUNNY   90  75  62 VRB5      29.86S HX 100
SHELBYVILLE    MOSUNNY   90  73  58 W8        29.89S HX  98
$$

TNZ017-018-042-046-047-192300-
NORTHEAST TENNESSEE

CITY           SKY/WX    TMP DP  RH WIND       PRES   REMARKS
TRI CITIES     PTSUNNY   83  65  54 W7        29.90S
ELIZABETHTON   PTCLDY    81  66  61 VRB6      29.91S
$$

TNZ012-013-036-069-073-074-192300-
CENTRAL EAST TENNESSEE

CITY           SKY/WX    TMP DP  RH WIND       PRES   REMARKS
KNOXVILLE      MOSUNNY   82  68  62 SW6       29.88F
OAK RIDGE      SUNNY     86  69  56 VRB5      29.89S HX  90
GATLINBURG     CLEAR     84  68  58 W7        29.88S
MORRISTOWN     CLEAR     81  70  69 W7        29.91S
$$

TNZ083-085-099-192300-
SOUTHEAST TENNESSEE

CITY           SKY/WX    TMP DP  RH WIND       PRES   REMARKS
CHATTANOOGA    MOSUNNY   90  66  45 NW9       29.87F HX  92
$$

SKY/WX REPORTED AS FAIR MEANS FEW OR NO CLOUDS BELOW
12 THOUSAND FEET.



USA.gov is the U.S. government's official web portal to all federal, state and local government web resources and services.